• în România
  • Lista ţărilor
  • Pe 7 zile
  • Temperatura apei
  • Hartă satelitară
  • Meteo pe hartă
  • Widget-uri
  • user-avatar
    Intrare

    Meteo pe oră la Ozerki

    Astăzi, 23 Septembrie, Duminică

    Timp Temperatura Precipitaţii Vânt Presiune Umiditate
    00:00 +9°C° 0.5 mm 3 m/s 742 mmHg 94%
    01:00 +9°C° 0.5 mm 3 m/s 741 mmHg 94%
    02:00 +9°C° 0 mm 3 m/s 741 mmHg 94%
    03:00 +9°C° 0.1 mm 3 m/s 741 mmHg 95%
    04:00 +9°C° 0.1 mm 3 m/s 741 mmHg 95%
    05:00 +8°C° 0.1 mm 3 m/s 741 mmHg 95%
    06:00 +8°C° 0 mm 3 m/s 741 mmHg 94%
    07:00 +9°C° 0 mm 3 m/s 741 mmHg 92%
    08:00 +9°C° 0 mm 3 m/s 740 mmHg 90%
    09:00 +10°C° 0 mm 4 m/s 740 mmHg 82%
    10:00 +11°C° 0 mm 4 m/s 740 mmHg 74%
    11:00 +13°C° 0 mm 5 m/s 740 mmHg 67%
    12:00 +13°C° 0.2 mm 5 m/s 740 mmHg 66%
    13:00 +13°C° 0.2 mm 5 m/s 740 mmHg 65%
    14:00 +13°C° 0.2 mm 5 m/s 740 mmHg 64%
    15:00 +13°C° 0.3 mm 4 m/s 740 mmHg 69%
    16:00 +12°C° 0.3 mm 3 m/s 740 mmHg 75%
    17:00 +11°C° 0.3 mm 3 m/s 740 mmHg 80%
    18:00 +10°C° 0.1 mm 3 m/s 740 mmHg 84%
    19:00 +9°C° 0.1 mm 2 m/s 740 mmHg 88%
    20:00 +8°C° 0.1 mm 2 m/s 740 mmHg 91%
    21:00 +8°C° 0 mm 2 m/s 740 mmHg 92%
    22:00 +7°C° 0 mm 3 m/s 740 mmHg 92%
    23:00 +7°C° 0 mm 3 m/s 740 mmHg 93%

    Mâine, 24 Septembrie, Luni

    Timp Temperatura Precipitaţii Vânt Presiune Umiditate
    00:00 +7°C° 0 mm 2 m/s 740 mmHg 94%
    01:00 +7°C° 0 mm 2 m/s 740 mmHg 95%
    02:00 +6°C° 0 mm 2 m/s 739 mmHg 96%
    03:00 +6°C° 0 mm 2 m/s 739 mmHg 96%
    04:00 +6°C° 0 mm 2 m/s 739 mmHg 97%
    05:00 +6°C° 0 mm 2 m/s 738 mmHg 97%
    06:00 +7°C° 0.1 mm 2 m/s 738 mmHg 96%
    07:00 +7°C° 0.1 mm 2 m/s 738 mmHg 95%
    08:00 +8°C° 0.1 mm 2 m/s 738 mmHg 94%
    09:00 +8°C° 0.6 mm 2 m/s 737 mmHg 93%
    10:00 +9°C° 0.6 mm 2 m/s 737 mmHg 92%
    11:00 +9°C° 0.6 mm 2 m/s 736 mmHg 92%
    12:00 +9°C° 2 mm 3 m/s 736 mmHg 93%
    13:00 +8°C° 2 mm 3 m/s 735 mmHg 94%
    14:00 +8°C° 2 mm 3 m/s 734 mmHg 95%
    15:00 +8°C° 2.2 mm 3 m/s 733 mmHg 95%
    16:00 +7°C° 2.2 mm 4 m/s 732 mmHg 95%
    17:00 +6°C° 2.2 mm 4 m/s 731 mmHg 95%
    18:00 +6°C° 1.9 mm 5 m/s 731 mmHg 95%
    19:00 +6°C° 1.9 mm 5 m/s 731 mmHg 94%
    20:00 +5°C° 1.9 mm 6 m/s 731 mmHg 94%
    21:00 +5°C° 1.3 mm 6 m/s 731 mmHg 93%
    22:00 +5°C° 1.3 mm 7 m/s 731 mmHg 92%
    23:00 +5°C° 1.3 mm 7 m/s 731 mmHg 91%

    Poimâine, 25 Septembrie, Marţi

    Timp Temperatura Precipitaţii Vânt Presiune Umiditate
    00:00 +5°C° 0.7 mm 7 m/s 731 mmHg 90%
    01:00 +5°C° 0.7 mm 7 m/s 732 mmHg 89%
    02:00 +5°C° 0.7 mm 7 m/s 733 mmHg 89%
    03:00 +5°C° 0.2 mm 7 m/s 733 mmHg 89%
    04:00 +4°C° 0.2 mm 7 m/s 734 mmHg 88%
    05:00 +4°C° 0.2 mm 6 m/s 735 mmHg 88%
    06:00 +4°C° 0 mm 6 m/s 736 mmHg 87%
    07:00 +4°C° 0 mm 6 m/s 737 mmHg 85%
    08:00 +4°C° 0 mm 6 m/s 738 mmHg 84%
    09:00 +4°C° 0 mm 6 m/s 738 mmHg 81%
    10:00 +4°C° 0 mm 6 m/s 739 mmHg 78%
    11:00 +5°C° 0 mm 6 m/s 740 mmHg 75%
    12:00 +5°C° 0 mm 6 m/s 741 mmHg 71%
    13:00 +7°C° 0 mm 6 m/s 741 mmHg 66%
    14:00 +8°C° 0 mm 6 m/s 742 mmHg 61%
    15:00 +7°C° 0.1 mm 5 m/s 743 mmHg 64%
    16:00 +6°C° 0.1 mm 5 m/s 743 mmHg 66%
    17:00 +6°C° 0.1 mm 5 m/s 744 mmHg 69%
    18:00 +5°C° 0 mm 4 m/s 745 mmHg 71%
    19:00 +4°C° 0 mm 4 m/s 745 mmHg 72%
    20:00 +3°C° 0 mm 4 m/s 746 mmHg 74%
    21:00 +3°C° 0 mm 4 m/s 747 mmHg 73%
    22:00 +1°C° 0 mm 4 m/s 747 mmHg 72%
    23:00 +1°C° 0 mm 4 m/s 748 mmHg 71%

    26 Septembrie, Miercuri

    Timp Temperatura Precipitaţii Vânt Presiune Umiditate
    00:00 +2°C° 0 mm 3 m/s 748 mmHg 74%
    01:00 +2°C° 0 mm 3 m/s 749 mmHg 76%
    02:00 +1°C° 0 mm 3 m/s 749 mmHg 79%
    03:00 +1°C° 0 mm 3 m/s 750 mmHg 83%
    04:00 +1°C° 0 mm 3 m/s 750 mmHg 86%
    05:00 +1°C° 0 mm 3 m/s 751 mmHg 90%
    06:00 +2°C° 0 mm 3 m/s 751 mmHg 85%
    07:00 +3°C° 0 mm 3 m/s 751 mmHg 80%
    08:00 +4°C° 0 mm 3 m/s 751 mmHg 75%
    09:00 +5°C° 0 mm 4 m/s 751 mmHg 68%
    10:00 +7°C° 0 mm 4 m/s 751 mmHg 62%
    11:00 +10°C° 0 mm 4 m/s 751 mmHg 55%
    12:00 +9°C° 0 mm 5 m/s 750 mmHg 54%
    13:00 +10°C° 0 mm 5 m/s 750 mmHg 53%
    14:00 +10°C° 0 mm 5 m/s 749 mmHg 52%
    15:00 +10°C° 0 mm 5 m/s 749 mmHg 58%
    16:00 +9°C° 0 mm 5 m/s 748 mmHg 64%
    17:00 +8°C° 0 mm 5 m/s 747 mmHg 71%
    18:00 +8°C° 0.4 mm 5 m/s 747 mmHg 76%
    19:00 +7°C° 0.4 mm 6 m/s 746 mmHg 81%
    20:00 +6°C° 0.4 mm 7 m/s 745 mmHg 87%
    21:00 +5°C° 1.5 mm 7 m/s 744 mmHg 88%
    22:00 +5°C° 1.5 mm 7 m/s 743 mmHg 89%
    23:00 +5°C° 1.5 mm 7 m/s 742 mmHg 90%

    27 Septembrie, Joi

    Timp Temperatura Precipitaţii Vânt Presiune Umiditate
    00:00 +5°C° 2 mm 7 m/s 741 mmHg 91%
    01:00 +5°C° 2 mm 7 m/s 740 mmHg 91%
    02:00 +5°C° 2 mm 7 m/s 739 mmHg 92%
    03:00 +7°C° 1.7 mm 6 m/s 738 mmHg 92%
    04:00 +7°C° 1.7 mm 6 m/s 738 mmHg 93%
    05:00 +7°C° 1.7 mm 5 m/s 737 mmHg 94%
    06:00 +8°C° 1 mm 5 m/s 737 mmHg 94%
    07:00 +8°C° 1 mm 4 m/s 737 mmHg 94%
    08:00 +10°C° 1 mm 4 m/s 737 mmHg 94%
    09:00 +11°C° 0.1 mm 4 m/s 738 mmHg 86%
    10:00 +10°C° 0.1 mm 5 m/s 738 mmHg 79%
    11:00 +12°C° 0.1 mm 5 m/s 739 mmHg 71%
    12:00 +13°C° 0 mm 5 m/s 739 mmHg 65%
    13:00 +13°C° 0 mm 5 m/s 739 mmHg 60%
    14:00 +13°C° 0 mm 5 m/s 739 mmHg 55%
    15:00 +12°C° 0 mm 4 m/s 740 mmHg 60%
    16:00 +12°C° 0 mm 3 m/s 740 mmHg 65%
    17:00 +12°C° 0 mm 2 m/s 740 mmHg 70%
    18:00 +10°C° 0.1 mm 2 m/s 740 mmHg 75%
    19:00 +9°C° 0.1 mm 2 m/s 740 mmHg 80%
    20:00 +9°C° 0.1 mm 2 m/s 740 mmHg 86%
    21:00 +9°C° 0.3 mm 2 m/s 740 mmHg 89%
    22:00 +9°C° 0.3 mm 2 m/s 740 mmHg 92%
    23:00 +10°C° 0.3 mm 1 m/s 740 mmHg 95%

    28 Septembrie, Vineri

    Timp Temperatura Precipitaţii Vânt Presiune Umiditate
    00:00 +10°C° 0.2 mm 1 m/s 740 mmHg 95%
    01:00 +10°C° 0.2 mm 1 m/s 740 mmHg 95%
    02:00 +10°C° 0.2 mm 1 m/s 740 mmHg 95%
    03:00 +9°C° 1.1 mm 2 m/s 739 mmHg 95%
    04:00 +9°C° 1.1 mm 3 m/s 738 mmHg 95%
    05:00 +8°C° 1.1 mm 4 m/s 737 mmHg 95%
    06:00 +10°C° 2.2 mm 4 m/s 736 mmHg 94%
    07:00 +10°C° 2.2 mm 5 m/s 735 mmHg 92%
    08:00 +11°C° 2.2 mm 6 m/s 734 mmHg 90%
    09:00 +11°C° 1.6 mm 6 m/s 735 mmHg 90%
    10:00 +11°C° 1.6 mm 6 m/s 735 mmHg 90%
    11:00 +10°C° 1.6 mm 6 m/s 735 mmHg 90%
    12:00 +9°C° 0.1 mm 6 m/s 736 mmHg 89%
    13:00 +8°C° 0.1 mm 6 m/s 737 mmHg 87%
    14:00 +7°C° 0.1 mm 5 m/s 738 mmHg 85%
    15:00 +7°C° 0 mm 5 m/s 739 mmHg 85%
    16:00 +7°C° 0 mm 4 m/s 740 mmHg 85%
    17:00 +7°C° 0 mm 3 m/s 741 mmHg 85%
    18:00 +6°C° 0 mm 2 m/s 742 mmHg 89%
    19:00 +6°C° 0 mm 2 m/s 742 mmHg 92%
    20:00 +6°C° 0 mm 1 m/s 743 mmHg 95%
    21:00 +5°C° 0 mm 2 m/s 743 mmHg 95%
    22:00 +5°C° 0 mm 2 m/s 744 mmHg 95%
    23:00 +4°C° 0 mm 3 m/s 744 mmHg 94%
    Arată mai mult